T 2005 Apr. 11.2792 TT MPC q 2.210877 (2000.0) P Q n 0.1317078 Peri. 58.3427 +0.7453848 +0.6510999 a 3.825854 Node 260.6183 -0.6501490 +0.6625772 e 0.422122 Incl. 8.3381 -0.1473355 +0.3702167 P 7.48 >From 70 observations 2005 Oct. 7-Nov. 25.
m1 = 15.0 + 5 logΔ + 10.0 log r